Location: Powder Track
(41.8531°N, 72.3584°W)
Time: 08:12:20
(UTC+00:00)

Altair - Pass Details

Date: 07 August 2021
Orbit: 1501 x 1682 km, 47.2° (Epoch: 19 September)

Event Time Altitude Azimuth Distance (km) Brightness Sun altitude
Exits shadow 03:30:16 31° 100° (E) 2,493 8.3 -28.6°
Drops below altitude 10° 03:35:35 10° 72° (ENE) 3,712 9.5 -28.9°
Sets 03:38:52 0° 64° (ENE) 4,678 10.1 -29.2°
